Temp
20 21 21 21 25 26 24 24 25 23 23 21 21 23 23 21 22 22 17 15 15 15 14 16 17 16 16 16 16 16 16 15 15 15 14 14 14 14 14 14 14 14 14 15 15 15 15 15 14
20 21 21 23 26 25 24 24 24 24 21 21 21 21 22 21 18 17 17 16 15 15 14 14 16 16 16 16 15 15 15 15 14 14 14 14 14 14 14 14 14 14 14 14 14 15 14 14 14
21 21 24 26 26 25 24 25 23 22 20 21 22 21 21 20 18 18 17 17 16 15 15 16 16 16 16 16 15 15 15 15 15 15 14 14 14 14 14 14 14 15 15 15 15 14 14 14 14
20 21 23 26 24 23 24 24 23 22 21 21 22 22 19 18 18 17 15 17 15 15 14 17 17 17 17 17 17 17 16 15 15 15 15 14 14 14 14 14 14 14 14 14 14 14 13 13 13
21 23 25 25 24 23 24 23 23 24 23 22 21 21 20 17 16 16 15 16 15 15 17 17 17 17 17 17 16 16 16 15 15 15 15 15 15 14 14 14 14 14 14 13 13 13 13 13 13
24 24 25 24 23 23 23 22 22 23 22 21 21 21 19 16 16 16 16 15 15 16 17 17 17 17 17 17 16 16 16 15 15 15 15 15 15 14 14 14 14 14 14 14 14 13 13 13 13
25 26 25 24 23 23 23 22 23 23 22 22 20 22 18 16 16 16 15 15 16 16 16 16 16 17 16 16 16 15 15 15 15 15 15 15 14 14 14 14 14 14 14 13 13 13 13 13 13
22 25 24 24 23 23 23 22 22 22 22 19 20 22 20 18 16 15 15 15 15 15 15 16 17 17 16 16 15 15 15 14 14 14 14 14 14 14 14 14 14 14 14 14 13 13 13 13 13
21 24 23 23 24 23 22 23 21 20 21 19 20 21 20 17 15 15 15 15 15 15 16 17 16 16 16 16 15 15 15 15 14 14 14 14 13 14 14 14 14 14 14 13 13 13 13 13 13
24 25 24 23 24 24 23 23 22 22 21 21 20 18 18 16 16 16 16 16 16 15 16 17 16 16 16 16 15 15 15 13 13 13 14 13 14 13 13 13 13 13 13 13 13 13 13 12 10
23 24 23 22 22 23 23 22 22 23 23 22 22 20 18 17 17 17 17 17 17 16 16 16 16 16 16 15 14 13 13 13 12 14 13 12 13 11 11 10 10 10 11 10 10 11 10 11 11
22 22 23 22 21 22 23 22 22 23 23 21 21 21 19 18 18 18 18 18 17 17 16 15 16 16 15 14 13 13 13 13 12 12 13 11 11 11 11 11 10 10 10 10 10 10 11 11 11
23 22 22 21 20 21 20 22 22 22 22 20 20 20 20 19 19 18 18 18 18 17 16 15 15 16 15 15 13 13 13 12 12 12 11 11 11 11 11 11 10 10 10 10 9 9 9 10 10
21 22 21 21 21 20 21 22 21 22 21 21 20 20 20 20 19 19 18 18 17 17 16 15 15 16 15 14 14 14 14 13 12 12 12 12 12 11 11 11 11 11 10 10 9 9 10 9 10
21 22 23 21 21 21 20 23 23 21 20 21 20 21 21 20 19 19 18 18 18 17 16 15 16 16 15 15 15 14 13 14 12 12 13 12 12 11 11 11 11 11 10 10 9 9 9 10 9
23 23 23 21 22 21 22 24 23 21 20 22 21 20 20 20 19 19 18 18 17 17 16 15 16 16 15 15 14 13 13 13 12 12 13 12 12 12 12 10 10 10 10 10 10 9 9 9 9
23 23 22 21 20 21 22 23 23 20 19 21 21 21 20 20 19 18 17 17 17 17 16 15 16 15 14 14 14 14 13 13 12 12 12 12 12 12 12 12 11 11 10 10 10 9 9 9 9
22 22 22 21 21 21 22 22 22 19 19 20 21 20 20 20 19 17 17 17 17 17 16 15 15 14 15 14 14 13 13 13 13 13 12 12 12 11 11 11 11 10 9 9 9 9 9 9 9
20 20 21 21 19 19 20 21 21 20 20 20 20 19 19 18 17 17 18 18 17 17 16 15 14 15 14 13 13 13 12 12 11 11 12 12 11 11 11 11 10 10 9 9 10 8 9 8 9
20 20 20 20 18 19 21 21 21 20 19 19 20 19 19 18 17 16 15 15 14 14 14 14 14 14 14 13 13 12 12 11 12 11 12 11 11 11 10 9 9 8 8 8 8 8 8 8 8
19 19 18 18 19 19 20 21 21 20 19 19 18 18 18 18 17 16 15 14 15 15 14 14 14 13 13 12 10 10 10 10 10 10 10 11 10 10 10 9 9 9 8 7 7 7 7 8 8
19 18 17 18 19 21 19 21 20 20 20 19 18 17 17 16 16 15 14 13 14 14 14 13 12 11 11 11 10 10 9 9 9 8 8 9 9 9 10 9 9 9 8 6 6 6 6 6 7
18 16 17 17 19 19 20 21 20 20 19 19 18 16 16 15 14 13 12 12 11 11 11 10 10 10 11 10 10 9 8 7 7 7 6 7 7 7 8 8 8 7 6 5 5 5 4 4 5
17 17 17 18 19 18 18 19 19 19 17 18 17 15 14 14 13 12 11 11 10 10 10 11 10 9 10 9 9 9 7 6 6 6 6 6 6 5 5 5 6 5 4 3 3 2 2 2 2
19 18 18 17 18 18 16 18 17 17 17 17 16 15 14 13 12 12 12 12 10 10 11 11 11 9 8 9 9 8 8 6 6 5 5 4 4 4 4 4 2 2 2 1 1 1 0 -0 -1
17 17 16 15 16 17 17 18 18 17 16 15 14 13 13 13 12 12 12 11 10 10 11 11 10 8 8 8 7 7 6 5 4 4 3 3 3 3 3 1 1 1 1 1 1 0 -1 -1 -1
17 16 15 14 9 14 17 17 17 17 17 16 15 14 13 13 12 12 11 11 10 9 8 9 9 9 8 7 6 6 4 4 4 4 3 2 2 1 0 0 0 -0 -1 -1 -2 -2 -2 -3 -3
17 16 16 16 13 14 18 18 18 16 17 16 15 14 14 13 13 12 12 11 9 9 8 8 8 7 6 5 5 4 4 3 3 1 1 0 0 -0 -0 -1 -1 -1 -2 -3 -3 -2 -2 -3 -3
16 16 15 15 14 14 13 17 17 16 16 16 15 14 13 13 12 11 11 10 9 8 7 7 6 6 5 4 4 3 2 1 1 0 -1 -1 -1 -1 -1 -1 -2 -2 -3 -3 -3 -3 -4 -3 -3
15 15 15 14 13 13 12 14 16 16 15 14 14 13 12 11 11 11 10 9 8 7 6 6 5 4 5 4 2 2 1 0 -0 -1 -1 -1 -2 -2 -2 -2 -3 -3 -3 -3 -4 -4 -3 -3 -3
Height
1521 1522 1523 1523 1521 1509 1523 1528 1525 1530 1531 1537 1538 1535 1534 1538 1535 1539 1551 1550 1552 1554 1555 1557 1558 1559 1560 1561 1562 1563 1563 1564 1563 1562 1562 1562 1559 1561 1562 1562 1561 1559 1560 1561 1560 1558 1556 1556 1555
1522 1522 1524 1521 1512 1519 1527 1525 1526 1529 1537 1538 1538 1540 1538 1542 1545 1547 1551 1550 1551 1553 1556 1557 1557 1558 1560 1562 1563 1563 1563 1563 1562 1562 1562 1562 1560 1561 1561 1561 1559 1559 1559 1558 1556 1555 1554 1554 1553
1523 1523 1520 1511 1508 1518 1526 1523 1531 1537 1539 1538 1539 1542 1541 1545 1548 1549 1550 1549 1551 1554 1556 1558 1559 1561 1562 1562 1561 1563 1564 1564 1563 1563 1563 1562 1560 1560 1562 1561 1561 1560 1558 1557 1556 1554 1553 1552 1552
1523 1525 1520 1510 1521 1527 1523 1527 1533 1537 1539 1540 1540 1542 1546 1549 1550 1551 1552 1554 1556 1558 1558 1559 1561 1563 1563 1563 1562 1563 1565 1564 1563 1563 1562 1562 1561 1560 1560 1560 1559 1559 1557 1556 1556 1554 1553 1551 1549
1523 1521 1511 1516 1522 1529 1527 1531 1535 1535 1537 1540 1541 1543 1547 1550 1550 1551 1553 1555 1559 1560 1562 1562 1563 1564 1565 1565 1565 1563 1562 1563 1564 1563 1562 1561 1561 1561 1561 1560 1558 1557 1556 1555 1554 1552 1551 1550 1549
1521 1515 1514 1520 1529 1533 1534 1536 1538 1538 1540 1543 1543 1543 1548 1552 1552 1554 1554 1556 1558 1560 1559 1561 1562 1563 1565 1565 1565 1563 1563 1563 1564 1563 1562 1562 1561 1561 1560 1559 1558 1556 1555 1554 1552 1551 1550 1548 1547
1517 1510 1515 1521 1534 1534 1535 1539 1537 1537 1541 1543 1545 1543 1551 1553 1554 1555 1557 1558 1560 1561 1561 1562 1562 1565 1566 1565 1565 1563 1563 1563 1563 1562 1562 1561 1561 1560 1559 1558 1557 1556 1555 1553 1552 1550 1549 1547 1546
1523 1519 1524 1527 1531 1534 1538 1541 1541 1540 1541 1544 1545 1543 1550 1552 1552 1554 1556 1559 1561 1561 1565 1563 1564 1563 1567 1567 1565 1564 1563 1563 1562 1561 1561 1561 1560 1559 1558 1557 1557 1555 1554 1553 1551 1549 1548 1546 1544
1523 1522 1525 1530 1529 1533 1540 1537 1542 1544 1545 1545 1546 1546 1548 1551 1553 1557 1558 1561 1563 1563 1564 1564 1565 1564 1567 1568 1566 1565 1563 1563 1562 1562 1562 1561 1561 1560 1559 1558 1556 1555 1554 1552 1550 1548 1547 1545 1543
1520 1516 1526 1531 1532 1532 1538 1536 1541 1543 1544 1544 1546 1547 1550 1551 1553 1556 1556 1560 1561 1563 1564 1564 1564 1565 1567 1567 1565 1565 1564 1563 1563 1563 1562 1562 1560 1559 1558 1557 1556 1555 1553 1551 1549 1547 1546 1544 1544
1524 1525 1532 1534 1535 1534 1536 1538 1540 1538 1539 1539 1540 1545 1549 1551 1554 1556 1557 1561 1563 1564 1564 1564 1564 1565 1566 1566 1565 1566 1565 1564 1563 1562 1561 1561 1559 1559 1558 1557 1555 1553 1550 1550 1548 1546 1545 1542 1541
1529 1533 1532 1536 1537 1537 1535 1537 1540 1538 1537 1540 1542 1544 1548 1551 1551 1553 1555 1559 1562 1565 1565 1564 1564 1566 1566 1566 1565 1565 1565 1565 1564 1564 1561 1561 1560 1559 1557 1556 1555 1552 1550 1548 1546 1545 1541 1539 1538
1528 1532 1531 1538 1538 1539 1538 1535 1538 1536 1538 1538 1542 1545 1545 1550 1550 1552 1553 1556 1561 1562 1563 1563 1564 1566 1565 1564 1564 1563 1563 1563 1562 1562 1561 1559 1559 1558 1556 1554 1552 1551 1549 1547 1545 1543 1540 1537 1536
1533 1533 1534 1536 1538 1539 1538 1536 1536 1537 1538 1538 1541 1542 1544 1546 1547 1550 1551 1555 1560 1561 1563 1562 1563 1564 1563 1563 1562 1562 1562 1562 1562 1561 1561 1558 1557 1556 1554 1553 1551 1549 1547 1545 1543 1541 1538 1536 1534
1534 1532 1531 1535 1537 1537 1536 1531 1531 1537 1538 1537 1538 1538 1542 1543 1546 1548 1551 1556 1559 1560 1560 1559 1562 1562 1562 1562 1562 1562 1562 1562 1562 1560 1558 1556 1555 1554 1552 1551 1549 1548 1545 1541 1539 1536 1534 1532 1530
1527 1527 1528 1535 1535 1536 1531 1525 1530 1536 1535 1533 1536 1536 1538 1540 1544 1548 1552 1556 1556 1556 1556 1558 1559 1561 1561 1562 1561 1561 1561 1560 1560 1558 1556 1555 1553 1552 1550 1548 1546 1544 1541 1540 1538 1535 1533 1531 1528
1525 1525 1531 1534 1537 1535 1532 1525 1527 1533 1531 1530 1531 1533 1535 1538 1543 1548 1551 1552 1552 1553 1553 1556 1558 1560 1560 1560 1559 1559 1559 1558 1558 1556 1554 1552 1550 1549 1546 1544 1541 1538 1536 1534 1532 1529 1528 1526 1524
1530 1531 1530 1533 1534 1532 1529 1528 1529 1530 1529 1529 1530 1531 1532 1537 1542 1546 1547 1548 1549 1550 1552 1556 1557 1557 1558 1558 1558 1557 1556 1555 1554 1552 1550 1548 1546 1544 1542 1539 1536 1533 1531 1529 1527 1524 1522 1520 1518
1534 1534 1534 1532 1538 1538 1534 1530 1531 1531 1529 1530 1530 1531 1534 1538 1542 1544 1546 1546 1547 1549 1551 1555 1554 1554 1555 1556 1555 1556 1554 1552 1551 1549 1546 1544 1542 1540 1537 1534 1531 1528 1525 1522 1519 1516 1514 1511 1510
1535 1534 1535 1537 1540 1538 1531 1529 1532 1534 1535 1534 1533 1534 1537 1540 1543 1544 1544 1545 1547 1548 1550 1551 1551 1551 1552 1552 1551 1551 1550 1548 1547 1545 1544 1540 1537 1534 1531 1527 1524 1522 1518 1515 1512 1509 1506 1503 1503
1537 1536 1540 1541 1537 1536 1533 1530 1532 1536 1537 1538 1539 1540 1541 1542 1544 1546 1546 1546 1547 1548 1549 1550 1550 1550 1550 1550 1550 1550 1548 1546 1544 1540 1537 1535 1531 1528 1524 1520 1516 1512 1509 1506 1504 1501 1499 1495 1494
1538 1542 1543 1541 1538 1528 1532 1526 1535 1534 1537 1540 1542 1543 1545 1546 1547 1548 1549 1548 1548 1548 1548 1548 1549 1549 1548 1548 1547 1544 1543 1541 1537 1534 1532 1528 1524 1521 1517 1514 1509 1505 1500 1496 1493 1492 1490 1489 1484
1542 1544 1541 1539 1534 1533 1530 1526 1532 1533 1537 1540 1544 1547 1548 1549 1549 1549 1549 1548 1548 1548 1548 1549 1550 1548 1546 1545 1542 1541 1539 1536 1532 1531 1526 1523 1519 1514 1509 1505 1501 1497 1494 1490 1486 1482 1480 1478 1476
1544 1542 1540 1538 1534 1540 1540 1537 1533 1536 1543 1543 1547 1549 1549 1549 1549 1549 1549 1550 1550 1549 1550 1549 1549 1547 1544 1541 1539 1537 1535 1532 1528 1525 1521 1517 1512 1508 1504 1498 1494 1489 1485 1482 1480 1477 1473 1471 1469
1538 1536 1538 1546 1543 1541 1545 1539 1540 1545 1546 1547 1548 1549 1550 1550 1550 1551 1551 1552 1551 1549 1548 1547 1545 1544 1541 1538 1537 1534 1530 1527 1525 1520 1515 1510 1505 1500 1496 1491 1488 1486 1481 1478 1476 1474 1471 1466 1465
1545 1543 1550 1558 1552 1545 1540 1538 1535 1545 1548 1549 1550 1551 1551 1551 1552 1552 1552 1552 1550 1547 1546 1545 1542 1540 1538 1535 1532 1529 1525 1522 1519 1514 1509 1504 1498 1493 1488 1486 1485 1482 1478 1476 1474 1472 1468 1466 1463
1547 1551 1555 1561 1579 1560 1539 1539 1541 1544 1546 1548 1550 1551 1551 1552 1552 1552 1551 1550 1547 1545 1542 1539 1537 1536 1534 1530 1527 1523 1520 1516 1512 1508 1503 1498 1493 1489 1486 1484 1482 1479 1476 1473 1469 1466 1463 1462 1460
1547 1554 1552 1552 1567 1563 1536 1535 1533 1542 1542 1548 1548 1550 1550 1550 1550 1550 1549 1548 1545 1542 1539 1536 1534 1532 1529 1526 1522 1519 1516 1512 1507 1502 1498 1494 1490 1486 1484 1481 1479 1475 1473 1469 1465 1463 1461 1458 1457
1551 1551 1555 1554 1559 1562 1561 1539 1536 1541 1545 1546 1548 1549 1549 1549 1549 1549 1547 1544 1542 1539 1537 1534 1531 1528 1525 1522 1519 1515 1510 1506 1502 1498 1493 1490 1486 1483 1481 1479 1476 1472 1467 1465 1462 1459 1458 1457 1455
1553 1553 1553 1561 1564 1563 1567 1551 1540 1542 1546 1548 1546 1546 1547 1549 1547 1545 1543 1541 1539 1537 1534 1530 1527 1525 1520 1516 1513 1510 1506 1503 1499 1495 1491 1487 1484 1480 1477 1474 1470 1467 1463 1462 1460 1458 1456 1454 1452
Wind_Speed
6 5 4 2 5 3 10 8 7 10 6 2 1 4 8 8 6 5 10 8 9 11 11 10 10 8 6 5 5 4 2 2 3 4 4 6 6 7 7 8 8 9 11 14 17 20 21 18 14
7 6 2 4 5 11 9 9 9 7 12 11 8 4 4 7 7 11 10 11 12 13 11 10 11 9 8 7 6 5 4 4 4 4 5 5 6 8 9 8 9 12 15 17 18 19 18 13 12
6 5 5 3 3 10 11 8 13 14 7 5 5 4 3 7 8 12 12 16 15 14 14 13 13 11 9 8 7 6 4 4 3 3 4 5 6 8 10 11 12 14 16 16 15 15 14 11 10
3 3 3 4 15 7 14 13 15 10 6 3 6 8 7 5 11 9 14 15 13 12 13 17 15 11 9 6 5 2 2 3 4 5 5 6 6 7 7 9 10 11 12 13 12 12 11 10 10
3 5 7 11 15 11 9 13 9 6 6 7 2 6 9 9 8 14 14 14 13 14 16 15 13 10 7 5 3 1 2 3 4 4 6 7 8 7 7 7 7 8 8 8 8 9 10 12 13
6 5 12 13 14 10 8 8 6 3 6 6 7 10 8 7 13 13 15 14 13 15 17 13 11 9 6 4 1 1 2 3 4 5 7 8 7 7 7 7 7 9 9 10 12 12 12 13 12
3 4 13 15 14 11 10 7 8 9 10 7 9 7 6 11 13 13 14 13 15 13 12 10 9 7 5 3 2 2 2 4 5 5 5 6 7 8 8 8 9 10 10 11 12 13 14 14 14
3 5 13 14 11 12 7 7 7 6 7 8 6 6 8 15 17 14 14 12 11 10 8 8 7 6 4 4 3 2 0 2 2 2 4 6 8 8 8 9 9 10 13 15 16 16 16 16 15
2 6 8 9 9 10 10 8 5 2 8 4 4 3 8 18 17 14 13 11 11 9 9 7 5 4 2 2 3 3 3 2 2 3 5 7 7 9 10 10 11 13 14 17 18 18 18 17 16
3 5 6 4 5 11 10 6 8 7 8 6 7 5 12 19 19 16 14 13 11 10 8 5 4 1 1 2 3 3 4 3 3 4 7 7 8 10 11 12 13 15 17 18 18 19 19 15 9
2 8 10 7 9 9 10 8 7 8 8 10 10 11 17 18 16 14 13 11 10 10 9 6 3 0 0 1 2 2 3 5 5 7 8 9 10 10 10 10 11 14 18 13 16 16 12 16 16
10 7 6 8 6 6 8 5 6 8 6 4 5 10 16 17 15 14 15 13 11 11 10 7 4 1 1 1 2 3 4 5 6 8 11 10 10 11 11 12 13 15 14 17 14 13 19 19 17
13 10 9 5 5 3 3 4 2 5 5 4 8 11 15 14 13 13 15 15 13 12 11 9 7 3 3 1 1 3 4 5 6 8 9 10 9 11 12 13 14 14 14 14 14 14 15 16 15
6 8 7 4 5 3 4 4 4 5 2 7 8 11 14 14 14 15 16 16 15 11 11 10 9 6 3 2 2 4 6 6 7 7 9 11 11 11 12 13 13 13 13 13 13 14 15 13 14
8 10 6 6 4 2 3 7 4 3 2 1 7 11 15 16 16 15 14 13 11 9 10 11 11 6 3 3 3 4 3 6 5 7 11 11 12 12 14 13 13 14 14 17 15 15 16 16 14
5 4 6 7 1 2 5 7 8 4 6 9 7 6 16 20 18 15 13 12 12 11 11 12 12 7 5 4 2 2 4 8 6 9 12 12 13 14 16 15 16 17 20 18 18 18 17 17 15
2 2 1 6 4 4 3 1 7 10 9 13 11 8 14 18 18 14 14 13 12 12 13 14 12 7 7 5 1 3 5 5 6 10 11 13 15 17 19 21 22 21 21 23 21 21 21 21 20
2 3 3 1 6 6 3 3 6 10 4 4 5 6 9 15 16 13 11 12 12 10 11 12 10 7 10 8 5 6 6 7 11 14 16 18 19 20 22 24 26 26 22 24 24 25 25 25 26
1 1 2 3 4 7 3 2 8 10 10 9 7 7 10 13 9 8 11 11 9 8 11 7 8 12 12 8 6 7 8 9 8 10 18 21 24 28 30 31 29 28 24 26 31 28 28 29 28
1 2 2 2 1 5 2 5 8 11 13 12 13 13 12 12 10 10 9 9 8 7 8 10 11 12 12 9 12 11 10 8 12 14 22 26 31 31 28 27 27 26 25 25 26 27 28 29 28
2 2 4 4 4 3 4 7 6 7 11 13 15 15 15 14 14 12 11 10 8 7 7 7 8 8 6 4 6 7 9 11 12 19 23 28 30 30 29 29 30 31 29 25 25 26 27 32 31
1 2 8 7 6 4 3 4 5 4 8 10 11 12 12 11 10 8 6 5 4 4 4 3 1 3 6 11 14 20 14 16 23 21 19 28 30 32 33 34 34 34 32 27 24 24 26 27 34
5 8 5 4 6 4 2 6 8 3 7 6 9 10 10 9 8 8 7 6 7 6 6 6 7 10 15 18 23 19 17 15 15 18 22 23 23 29 32 35 35 33 31 26 30 27 21 22 26
6 3 1 1 2 4 2 5 7 2 4 7 10 10 9 8 6 6 7 7 8 7 6 9 10 13 18 21 27 25 21 21 22 23 25 24 27 26 25 31 29 28 25 18 16 15 13 11 8
8 2 2 2 4 1 1 6 7 5 7 7 7 9 9 8 7 5 4 4 4 4 9 15 21 14 20 34 33 30 27 20 21 24 25 29 28 27 25 28 17 13 12 9 7 8 7 9 11
6 6 3 2 2 4 3 2 6 7 7 7 7 7 7 8 8 6 4 5 6 10 16 21 18 13 20 25 22 21 19 20 23 25 31 32 29 27 25 14 11 11 11 11 10 9 6 7 8
3 4 1 3 1 3 1 3 7 7 6 6 6 3 4 4 4 6 8 9 9 8 11 16 21 22 20 19 17 21 22 25 31 35 33 24 25 19 15 13 11 7 5 4 5 7 11 6 9
4 3 1 2 3 4 3 7 7 9 5 2 3 3 2 3 6 10 13 13 12 13 15 20 21 16 15 14 17 19 26 27 30 27 23 20 16 13 11 8 7 7 8 10 14 22 20 13 15
3 2 2 1 2 3 4 5 5 2 3 4 10 11 9 8 11 14 17 16 15 12 11 12 13 14 13 13 18 20 21 20 20 19 17 15 14 12 10 10 11 12 17 26 25 14 11 11 11
2 1 1 2 2 2 4 6 4 1 1 5 16 9 7 10 14 16 16 15 12 9 10 12 13 14 17 20 19 18 17 17 17 17 15 13 13 11 11 13 18 24 18 15 14 14 15 15 16
Wind_Direction
146 145 145 180 206 186 130 109 112 124 129 77 85 323 46 25 4 41 136 117 124 139 140 140 143 150 155 140 142 154 145 164 151 169 194 224 240 247 259 263 276 287 290 286 291 300 301 296 282
152 154 150 228 178 148 121 128 129 99 111 110 104 109 73 69 69 113 126 135 134 139 141 137 132 127 127 133 151 154 164 181 181 185 208 234 251 257 259 265 274 284 289 292 297 300 302 301 280
153 169 225 163 136 112 119 134 120 123 138 169 125 62 79 94 117 130 140 137 136 136 133 133 128 132 139 145 149 151 175 213 247 271 264 267 275 294 299 299 290 286 289 294 295 290 289 286 287
161 196 174 169 111 91 115 129 134 142 133 151 128 100 95 107 129 137 136 130 130 130 128 126 128 128 122 117 109 129 211 254 272 272 296 309 314 310 303 299 303 307 310 310 299 298 298 294 288
188 229 144 115 103 116 111 131 151 141 130 148 177 114 108 128 132 138 138 132 130 130 123 119 115 112 108 105 105 136 226 263 277 290 307 317 324 326 316 321 326 327 325 320 317 312 311 313 314
187 219 142 125 115 120 120 143 163 150 146 122 123 124 111 148 140 144 137 136 141 135 126 121 117 105 85 64 2 306 270 263 286 303 314 319 316 316 320 330 339 345 345 343 343 334 329 326 323
180 138 112 123 133 145 138 151 168 141 140 130 133 125 129 149 153 144 146 145 140 142 133 124 108 87 68 35 351 319 274 270 271 286 303 311 312 319 323 331 332 340 342 339 333 330 331 330 327
115 114 135 131 152 131 135 168 163 177 133 145 160 141 168 166 162 153 154 157 154 150 155 130 101 82 45 21 38 71 213 226 248 286 314 316 315 321 324 322 327 328 330 331 330 329 327 327 325
138 156 137 142 159 140 157 160 150 164 152 172 182 117 128 163 161 158 157 163 169 165 151 129 115 81 40 30 51 54 45 46 1 330 314 317 317 317 320 313 322 325 325 324 324 323 323 323 321
275 157 102 99 115 140 158 182 149 172 167 179 162 148 151 164 167 171 170 175 175 179 167 154 135 101 354 356 4 4 7 3 354 340 339 335 319 310 307 302 307 313 317 317 318 317 317 321 315
74 112 129 128 132 150 158 175 181 190 186 156 171 168 168 169 176 180 180 175 172 182 187 193 185 180 229 286 338 320 330 330 323 326 323 316 318 319 322 317 321 319 317 322 318 316 316 311 310
116 104 139 139 148 177 181 155 204 220 111 123 163 165 168 178 180 184 181 183 186 193 201 206 216 267 269 276 320 314 319 313 322 317 320 319 319 312 314 313 315 318 315 314 315 312 310 312 313
114 123 106 119 147 107 146 178 254 227 211 201 182 178 177 179 180 183 187 186 189 198 212 213 226 221 239 239 284 352 346 329 328 325 315 317 313 310 313 311 314 312 312 312 311 309 308 310 311
116 121 111 132 152 103 246 162 249 97 81 182 195 195 193 188 184 184 190 198 204 214 220 219 222 224 243 191 64 34 15 357 348 338 331 342 334 321 320 316 314 311 308 304 301 301 305 299 300
144 139 128 77 151 98 290 207 164 52 280 194 215 208 205 197 194 189 183 195 204 221 220 210 207 214 227 165 97 58 19 21 351 353 2 358 351 334 330 317 316 313 310 310 304 300 301 297 290
168 188 208 67 98 34 291 134 117 348 302 237 219 220 209 204 201 193 200 211 226 232 224 205 202 211 211 171 94 11 354 358 345 346 341 338 328 323 321 310 307 309 311 304 299 296 290 287 284
160 128 115 152 56 317 320 268 28 328 292 245 239 238 213 206 200 204 218 226 238 243 223 200 198 202 204 200 280 330 325 339 322 320 318 314 314 312 306 303 300 297 294 294 288 284 282 280 278
136 192 186 321 38 334 314 320 2 359 333 223 240 231 207 196 195 205 221 238 239 227 200 187 186 207 215 224 266 273 289 308 312 311 311 316 320 319 313 307 304 301 291 288 284 279 277 272 273
68 259 306 52 75 318 360 60 44 45 65 87 81 109 135 151 169 193 221 233 220 209 180 178 188 220 222 242 274 281 291 301 313 314 310 319 319 318 312 307 303 300 293 289 292 284 276 274 265
292 288 73 110 35 295 28 87 79 57 59 63 81 93 113 121 114 100 95 104 116 143 162 194 208 227 238 274 295 304 317 326 316 318 317 316 313 312 313 310 307 301 296 291 286 284 281 273 265
61 360 16 314 304 213 230 111 105 72 77 84 82 87 88 93 94 84 85 96 118 152 177 207 236 255 278 337 6 352 337 334 322 322 318 313 312 314 317 315 312 309 303 294 288 283 278 278 271
235 13 306 274 250 213 257 161 86 97 98 83 79 77 78 78 78 75 78 96 152 184 206 221 179 55 10 359 351 344 345 333 326 323 319 318 316 317 317 314 310 306 301 295 291 288 280 277 274
27 318 307 269 233 238 138 260 103 129 94 71 78 75 74 66 68 70 76 85 93 104 108 76 39 10 354 347 343 342 335 333 329 320 316 317 316 315 314 312 310 306 302 299 300 295 287 276 270
324 259 181 163 194 226 68 320 124 50 28 88 82 63 50 45 57 75 90 91 87 80 46 10 1 345 340 344 339 336 337 328 322 319 321 320 319 317 315 311 307 301 301 305 306 303 307 307 291
349 252 221 210 205 27 149 275 53 103 90 74 64 50 50 55 65 86 88 78 68 13 339 336 331 343 337 330 327 318 314 322 321 323 322 321 319 318 316 311 305 300 309 317 322 320 319 321 298
19 3 29 318 321 315 185 224 132 129 102 73 70 76 71 66 66 61 26 343 332 325 321 324 325 328 312 310 311 314 318 320 322 321 322 321 319 316 307 302 297 296 296 290 290 286 297 328 313
39 57 26 122 162 255 295 153 177 167 117 66 69 69 64 53 28 1 343 326 308 311 309 307 303 311 314 313 314 315 319 321 321 321 322 317 315 309 301 297 298 302 312 311 293 288 276 321 339
33 120 226 32 340 303 304 290 303 189 225 39 14 320 257 307 324 326 324 324 313 297 298 297 304 316 313 313 315 316 316 318 319 323 322 319 315 309 298 303 292 294 301 303 300 292 296 311 314
172 157 72 75 296 279 302 311 75 173 287 309 331 316 281 296 312 318 321 317 314 304 300 311 316 311 311 318 318 318 321 323 324 323 321 318 314 306 294 295 295 297 291 296 308 314 299 290 292
314 142 107 294 199 222 322 279 88 158 59 297 319 326 281 296 311 317 320 321 315 306 309 318 320 316 320 318 322 323 326 323 323 321 321 315 312 303 295 281 279 299 316 310 299 289 285 283 287